[[{"header":{"parameterUnit":"m.s-1","parameterCategory":1,"la1":30.2991,"la2":30.254,"lo1":-89.0895,"lo2":-89.0444,"dy":0.0017,"dx":0.0017,"nx":28,"ny":28,"refTime":"2024-05-24T09:00:00:Z","depth":0,"parameterNumber":2,"parameterNumberName":"U-component_of_WINDS"},"data":[0,0,0,0,0,0,0,0,0,0,0,0,0,0,0,0,0,0,0,0,0,0,0,0,0,0,0,0,0,0,0,0,0,0,0,0,0,0,0,0,0,0,0,0,0,0,0,0,0,0,0,0,0,0,0,0,0,0,-0.6848,-0.6847,0,-0.673,-0.6729,-0.6728,-0.6679,-0.6679,-0.6679,-0.668,-0.6559,-0.6555,-0.6552,0,0,0,0,0,0,0,0,0,0,0,0,0,-0.7032,-0.7029,-0.6848,-0.6847,-0.6845,-0.673,-0.6729,-0.6727,-0.6679,-0.6679,-0.6679,-0.668,-0.656,-0.6556,-0.6552,0,0,0,0,0,0,0,0,0,0,0,0,0,-0.6937,-0.7028,-0.6849,-0.6807,-0.6803,-0.6731,-0.6729,-0.6727,-0.6679,-0.6679,-0.668,-0.668,-0.6561,-0.6556,-0.6551,-0.6512,0,0,-0.6535,-0.6533,0,0,0,0,0,0,0,0,-0.6942,-0.693,-0.6815,-0.681,-0.6805,-0.672,-0.6749,-0.6655,-0.6679,-0.6726,-0.668,-0.668,-0.6612,-0.6603,-0.658,-0.6506,-0.6501,-0.6535,-0.6532,-0.6529,-0.6528,0,0,0,0,0,0,0,-0.6949,-0.6935,-0.6802,-0.6813,-0.6807,-0.6795,-0.6782,-0.6731,-0.6668,-0.6722,-0.6718,-0.6705,-0.6609,-0.6585,-0.6576,-0.6499,-0.6535,-0.653,-0.6527,-0.6525,-0.6385,-0.6385,0,0,0,0,0,0,-0.6962,-0.6941,-0.6805,-0.6798,-0.6876,-0.6791,-0.6777,-0.6747,-0.6669,-0.6657,-0.6704,-0.6703,-0.6593,-0.6583,-0.6572,-0.6519,-0.6529,-0.6525,-0.6522,-0.6386,-0.6385,-0.6385,0,0,0,0,0,0,-0.6967,-0.6951,-0.681,-0.6868,-0.685,-0.6788,-0.6754,-0.6744,-0.6719,-0.6656,-0.6644,-0.6691,-0.6593,-0.6579,-0.6527,-0.6515,-0.6522,-0.6518,-0.6387,-0.6386,-0.6385,-0.6415,0,0,0,0,0,0,-0.6972,-0.6953,-0.6937,-0.6868,-0.6847,-0.6767,-0.6754,-0.6741,-0.6711,-0.6707,-0.664,-0.6629,-0.6593,-0.6535,-0.6522,-0.6508,-0.6513,-0.6387,-0.6386,-0.6385,-0.6415,-0.6415,-0.6415,0,0,0,0,0,-0.6979,-0.695,-0.6936,-0.692,-0.6826,-0.6766,-0.6754,-0.6712,-0.671,-0.6694,-0.6652,-0.6631,-0.6518,-0.653,-0.6514,-0.6499,-0.6388,-0.6387,-0.6385,-0.6414,-0.6415,-0.6415,0,0,0,0,0,0,-0.7019,-0.6941,-0.6924,-0.6873,-0.6827,-0.6758,-0.6736,-0.6715,-0.6668,-0.6667,-0.6618,-0.6603,-0.6554,-0.6521,-0.6535,-0.6456,-0.6451,-0.6447,-0.6479,-0.6479,-0.6479,-0.6488,-0.6509,0,0,0,0,0,-0.7022,-0.6981,-0.6914,-0.6875,-0.6853,-0.6799,-0.6771,-0.6743,-0.6693,-0.6674,-0.6629,-0.6581,-0.6535,-0.6505,-0.6459,-0.641,-0.6394,-0.6392,-0.6392,-0.6393,-0.6389,-0.636,-0.6358,-0.638,-0.638,-0.638,0,0,-0.7028,-0.698,-0.6956,-0.6882,-0.6843,-0.68,-0.6783,-0.6739,-0.6707,-0.6667,-0.6614,-0.658,-0.6523,-0.6472,-0.6447,-0.6443,-0.638,-0.6391,-0.6392,-0.6388,-0.6358,-0.6356,-0.6354,-0.6379,-0.6379,-0.638,0,0,-0.7016,-0.6976,-0.6939,-0.69,-0.6841,-0.6805,-0.6796,-0.6731,-0.6706,-0.6652,-0.6621,-0.6583,-0.6504,-0.6465,-0.6435,-0.6408,-0.6386,-0.6394,-0.6396,-0.6368,-0.6366,-0.6364,-0.6353,-0.635,-0.6391,-0.6391,-0.6391,0,-0.7031,-0.6965,-0.6922,-0.6879,-0.6847,-0.681,-0.6771,-0.6736,-0.6665,-0.6643,-0.664,-0.654,-0.6499,-0.6438,-0.6431,-0.6409,-0.6396,-0.6401,-0.637,-0.6368,-0.6365,-0.6354,-0.635,-0.6393,-0.6392,-0.6392,-0.6392,0,-0.6985,-0.6941,-0.6918,-0.685,-0.6815,-0.6775,-0.6725,-0.6696,-0.6671,-0.6635,-0.6581,-0.6531,-0.6473,-0.6457,-0.6433,-0.6392,-0.6391,-0.638,-0.6374,-0.6365,-0.6354,-0.6349,-0.6394,-0.6394,-0.6394,-0.6393,0,0,-0.6995,-0.6904,-0.6896,-0.6864,-0.6796,-0.6761,-0.6719,-0.6663,-0.6637,-0.659,-0.6553,-0.6487,-0.6476,-0.6442,-0.6413,-0.6388,-0.6368,-0.6379,-0.6377,-0.6378,-0.6319,-0.6327,-0.6323,-0.6354,-0.6353,-0.6353,-0.6323,0,-0.6973,-0.6896,-0.6856,-0.6796,-0.6753,-0.6717,-0.668,-0.6635,-0.66,-0.6559,-0.6522,-0.6475,-0.6465,-0.6444,-0.6418,-0.6377,-0.6356,-0.6378,-0.6318,-0.6317,-0.6332,-0.6317,-0.6326,-0.63,-0.6319,-0.6318,-0.6317,0,-0.6937,-0.689,-0.6826,-0.6762,-0.6742,-0.671,-0.6655,-0.6616,-0.6564,-0.654,-0.6502,-0.6473,-0.6427,-0.6426,-0.6361,-0.6377,-0.635,-0.6326,-0.6324,-0.6316,-0.6316,-0.6307,-0.6291,-0.6287,-0.631,-0.6311,-0.6311,0,-0.695,-0.687,-0.682,-0.6795,-0.6719,-0.6697,-0.6665,-0.6612,-0.6581,-0.6533,-0.6512,-0.6459,-0.643,-0.639,-0.6347,-0.6351,-0.6286,-0.6282,-0.6265,-0.6266,-0.6252,-0.6253,-0.623,-0.6237,-0.6237,-0.6237,-0.6237,0,-0.6929,-0.689,-0.6825,-0.6794,-0.675,-0.6704,-0.6662,-0.6627,-0.658,-0.6542,-0.6508,-0.6473,-0.6419,-0.6377,-0.6344,-0.6295,-0.6282,-0.6261,-0.6253,-0.6264,-0.6266,-0.6244,-0.6245,-0.6236,-0.6236,-0.6236,-0.6237,0,-0.6934,-0.6889,-0.6833,-0.6766,-0.6748,-0.6718,-0.6661,-0.663,-0.6594,-0.6546,-0.6532,-0.6476,-0.6425,-0.6379,-0.6311,-0.6288,-0.6238,-0.6228,-0.6255,-0.625,-0.6235,-0.6237,-0.6197,-0.6188,-0.6203,-0.6203,-0.6203,0,-0.6923,-0.6893,-0.6823,-0.6795,-0.6763,-0.6718,-0.6686,-0.664,-0.6607,-0.6545,-0.6521,-0.6467,-0.6422,-0.6341,-0.6294,-0.6242,-0.6229,-0.6219,-0.6221,-0.6233,-0.6227,-0.6229,-0.6225,-0.6219,-0.6219,-0.6219,-0.6219,0,-0.6908,-0.6887,-0.6842,-0.6788,-0.675,-0.6706,-0.6661,-0.664,-0.6585,-0.655,-0.6498,-0.6462,-0.6393,-0.6339,-0.6282,-0.6248,-0.6224,-0.6219,-0.6212,-0.6222,-0.6239,-0.6228,-0.6255,-0.622,-0.622,-0.622,-0.622,-0.6219,-0.6904,-0.6875,-0.6821,-0.6771,-0.6732,-0.669,-0.6658,-0.6618,-0.6573,-0.6512,-0.6488,-0.6434,-0.6381,-0.6301,-0.6268,-0.6224,-0.622,-0.621,-0.6207,-0.6205,-0.6206,-0.6247,-0.6214,-0.6214,-0.6214,-0.6214,-0.6214,0,-0.6886,-0.685,-0.6804,-0.6742,-0.6702,-0.6684,-0.6633,-0.6601,-0.6554,-0.6507,-0.6462,-0.6401,-0.6349,-0.6298,-0.6243,-0.6218,-0.6206,-0.6205,-0.6206,-0.6198,-0.6214,-0.6225,-0.6216,-0.6216,-0.6216,-0.6216,-0.6216,-0.6216,-0.6872,-0.6821,-0.6794,-0.6723,-0.6687,-0.6633,-0.6606,-0.6567,-0.6529,-0.6462,-0.6418,-0.6385,-0.6336,-0.6277,-0.6229,-0.6215,-0.6196,-0.6198,-0.6181,-0.6197,-0.6197,-0.6197,-0.6207,-0.6194,-0.6194,-0.6168,-0.6168,-0.6167]},{"header":{"parameterUnit":"m.s-1","parameterCategory":1,"la1":30.2991,"la2":30.254,"lo1":-89.0895,"lo2":-89.0444,"dy":0.0017,"dx":0.0017,"nx":28,"ny":28,"refTime":"2024-05-24T09:00:00:Z","depth":0,"parameterNumber":3,"parameterNumberName":"V-component_of_WINDS"},"data":[0,0,0,0,0,0,0,0,0,0,0,0,0,0,0,0,0,0,0,0,0,0,0,0,0,0,0,0,0,0,0,0,0,0,0,0,0,0,0,0,0,0,0,0,0,0,0,0,0,0,0,0,0,0,0,0,0,0,5.3844,5.3844,0,5.3849,5.3849,5.385,5.377,5.3768,5.3766,5.3764,5.3767,5.3769,5.3771,0,0,0,0,0,0,0,0,0,0,0,0,0,5.3763,5.3765,5.3844,5.3844,5.3844,5.3849,5.3849,5.385,5.3771,5.3768,5.3765,5.3763,5.3766,5.3769,5.3771,0,0,0,0,0,0,0,0,0,0,0,0,0,5.3786,5.3766,5.3844,5.3805,5.3802,5.3849,5.3849,5.385,5.3771,5.3768,5.3765,5.3762,5.3766,5.3769,5.3772,5.3855,0,0,5.3781,5.3783,0,0,0,0,0,0,0,0,5.3785,5.3789,5.3811,5.3808,5.3805,5.3806,5.3822,5.3851,5.3772,5.3783,5.3764,5.376,5.3782,5.3784,5.3792,5.3855,5.3855,5.3781,5.3783,5.3785,5.3786,0,0,0,0,0,0,0,5.3784,5.3789,5.3846,5.3811,5.3808,5.3787,5.3787,5.3827,5.3801,5.3782,5.3776,5.3778,5.378,5.3789,5.3791,5.3856,5.3781,5.3784,5.3786,5.3787,5.3989,5.3992,0,0,0,0,0,0,5.3788,5.3788,5.3846,5.3846,5.3787,5.3791,5.3791,5.3809,5.38,5.3796,5.3781,5.3774,5.3785,5.3788,5.3791,5.3889,5.3785,5.3788,5.3789,5.3985,5.3989,5.3993,0,0,0,0,0,0,5.3786,5.3794,5.3846,5.3816,5.3821,5.3796,5.3817,5.3811,5.382,5.3799,5.3794,5.3795,5.3783,5.3787,5.384,5.3888,5.3789,5.3792,5.3981,5.3986,5.3991,5.4085,0,0,0,0,0,0,5.3784,5.3794,5.3825,5.3817,5.3823,5.3895,5.382,5.3813,5.3825,5.3817,5.3811,5.3807,5.3781,5.3836,5.3843,5.389,5.3794,5.3977,5.3983,5.399,5.4078,5.4093,5.4106,0,0,0,0,0,5.3782,5.3851,5.3827,5.3835,5.3862,5.3898,5.3901,5.387,5.383,5.3861,5.3848,5.3807,5.3882,5.3842,5.385,5.3899,5.3973,5.3982,5.3989,5.4071,5.409,5.4106,0,0,0,0,0,0,5.3864,5.3849,5.3823,5.3891,5.3897,5.3885,5.3924,5.3891,5.3907,5.3899,5.3859,5.3858,5.3918,5.3913,5.387,5.3979,5.392,5.393,5.398,5.3998,5.4012,5.4011,5.3797,0,0,0,0,0,5.389,5.3922,5.3907,5.3969,5.3973,5.3948,5.3963,5.3939,5.3942,5.3944,5.3935,5.3939,5.3963,5.398,5.4001,5.4077,5.4074,5.4114,5.4128,5.414,5.4149,5.4189,5.4206,5.4019,5.4019,5.4019,0,0,5.3945,5.394,5.3962,5.3985,5.3986,5.402,5.395,5.3988,5.4012,5.3949,5.3999,5.3993,5.3995,5.4061,5.4089,5.4059,5.42,5.415,5.416,5.4162,5.4199,5.4216,5.4232,5.4024,5.4023,5.4022,0,0,5.406,5.4061,5.4113,5.4116,5.412,5.4103,5.4116,5.4109,5.4103,5.4153,5.4107,5.4135,5.4177,5.4181,5.4189,5.4308,5.4271,5.4316,5.439,5.443,5.4444,5.4457,5.45,5.4516,5.4325,5.4325,5.4326,0,5.4127,5.4176,5.4143,5.4185,5.4196,5.4142,5.4195,5.4199,5.4209,5.4218,5.4184,5.4238,5.4236,5.4301,5.4331,5.4338,5.4352,5.4317,5.4445,5.4458,5.4469,5.451,5.4526,5.4331,5.433,5.433,5.4329,0,5.4258,5.4293,5.4334,5.4347,5.4363,5.441,5.4384,5.4404,5.4379,5.4366,5.4418,5.4414,5.4434,5.4447,5.4423,5.451,5.4491,5.4452,5.4392,5.4493,5.4531,5.4546,5.4339,5.4337,5.4335,5.4334,0,0,5.4424,5.442,5.4436,5.4442,5.4443,5.4468,5.4513,5.4533,5.4552,5.4561,5.4597,5.4635,5.46,5.4608,5.4584,5.4619,5.4714,5.4575,5.4574,5.4601,5.481,5.484,5.4858,5.469,5.4693,5.4695,5.481,0,5.4537,5.4614,5.4586,5.4664,5.4696,5.4647,5.4685,5.469,5.4679,5.4704,5.4692,5.472,5.467,5.4676,5.4708,5.4696,5.4756,5.4687,5.4723,5.4724,5.4724,5.4878,5.4909,5.5018,5.4825,5.4827,5.4829,0,5.4679,5.4696,5.4778,5.4774,5.4787,5.4822,5.4839,5.4864,5.4868,5.4858,5.4869,5.4837,5.488,5.4821,5.488,5.4834,5.4847,5.4843,5.4847,5.4849,5.4783,5.4884,5.5052,5.5068,5.4852,5.485,5.4848,0,5.4793,5.4835,5.489,5.4897,5.4894,5.492,5.492,5.4922,5.4936,5.4951,5.496,5.498,5.4991,5.5006,5.4981,5.494,5.5043,5.4981,5.5036,5.5037,5.5059,5.5058,5.5232,5.5068,5.5068,5.5068,5.5067,0,5.4921,5.4973,5.4942,5.4975,5.5032,5.5,5.5057,5.5051,5.5053,5.5085,5.5042,5.5073,5.5037,5.5064,5.5044,5.5096,5.5101,5.5093,5.5087,5.5097,5.5098,5.5105,5.5097,5.5072,5.5071,5.507,5.5069,0,5.5058,5.5038,5.5095,5.5089,5.5089,5.5131,5.5125,5.5156,5.5143,5.5183,5.5191,5.517,5.5199,5.5176,5.5204,5.5191,5.526,5.5243,5.5259,5.5254,5.531,5.5305,5.5494,5.5517,5.5339,5.534,5.5342,0,5.5141,5.518,5.5179,5.5198,5.5201,5.5232,5.5247,5.5217,5.5235,5.5244,5.5273,5.53,5.5319,5.5368,5.5355,5.5377,5.536,5.5425,5.5363,5.5372,5.5362,5.536,5.5364,5.5437,5.544,5.5441,5.5443,0,5.5291,5.528,5.5305,5.5327,5.5347,5.5362,5.5374,5.5391,5.5361,5.5383,5.5413,5.5429,5.5458,5.5485,5.5503,5.5501,5.5468,5.5462,5.5476,5.5486,5.5494,5.5491,5.5293,5.5458,5.5456,5.5455,5.5454,5.5454,5.5403,5.5437,5.5442,5.5471,5.5477,5.5489,5.5518,5.551,5.5535,5.5558,5.5539,5.5576,5.5579,5.56,5.5603,5.5631,5.5604,5.5624,5.5629,5.5635,5.5643,5.549,5.5634,5.5634,5.5633,5.5633,5.5633,0,5.5552,5.5553,5.558,5.5599,5.5622,5.559,5.5601,5.5622,5.5656,5.5663,5.5684,5.5719,5.5745,5.5735,5.5758,5.5782,5.5767,5.5789,5.5787,5.5788,5.5665,5.5651,5.5801,5.5801,5.5801,5.5801,5.5801,5.5801,5.5632,5.5686,5.5676,5.5734,5.5734,5.5771,5.5781,5.5792,5.5798,5.584,5.5862,5.5856,5.5856,5.5879,5.5901,5.5897,5.5908,5.5936,5.5927,5.5813,5.5796,5.578,5.5767,5.5938,5.5939,5.6046,5.6047,5.6048]}]]